Theta_e
345 347 349 349 349 349 350 349 348 350 349 347 345 344 341 341 337 333 330 334 332 335 331 332 343 346 349 351 348 348 347 349 352 348 347 346 350 347 344 345 344 345 344 344 345 346 346 345 344 344 345 345 345 344 344 344 344 344 343 343 344 344 344 344 343 343 344 344 344 344 344 344 345 345
348 347 349 349 346 349 349 347 348 350 351 346 346 345 345 345 339 338 334 335 337 336 337 335 339 349 351 349 347 347 348 349 350 348 347 345 346 345 342 343 343 342 342 341 341 343 344 344 344 343 343 343 343 342 341 341 342 342 342 342 342 342 343 343 342 342 342 342 342 342 343 343 343 343
349 349 348 350 349 350 350 351 348 349 350 348 346 346 346 345 344 342 340 334 340 340 338 336 339 341 349 344 345 346 347 350 348 346 347 348 344 342 345 341 340 340 339 339 339 339 339 339 339 339 338 339 339 340 341 341 341 342 342 342 342 342 341 341 340 340 340 340 340 340 340 341 341 341
351 349 349 351 351 351 350 350 350 347 350 350 347 346 346 347 346 345 342 338 337 342 337 340 343 346 348 347 346 347 346 356 349 349 346 356 347 350 349 340 338 337 337 337 336 335 335 335 336 337 338 338 340 342 341 340 340 340 340 339 339 339 338 338 338 338 338 338 337 337 338 338 339 339
352 351 349 351 353 354 351 350 350 347 348 350 348 347 346 344 347 346 343 339 338 344 345 342 340 344 346 346 348 346 345 350 350 347 347 353 348 346 346 345 338 337 335 335 334 335 334 334 335 336 336 337 338 341 341 340 339 339 337 337 335 334 334 334 334 334 335 336 336 336 337 337 337 337
353 352 350 349 352 356 353 351 349 347 346 348 345 346 345 343 345 348 344 341 340 339 344 342 345 343 345 342 350 346 343 344 351 346 345 347 349 348 346 343 344 336 335 333 332 333 333 333 334 334 335 336 337 337 338 337 336 335 334 332 331 331 330 330 331 332 334 334 335 335 335 335 335 336
356 352 351 349 350 353 352 352 350 349 347 348 348 345 346 345 345 347 347 344 340 339 340 345 344 345 344 343 344 347 346 348 348 348 345 343 345 348 347 344 341 336 335 332 332 332 332 333 333 333 334 335 334 334 333 332 332 330 329 327 329 329 328 328 328 330 331 331 331 332 332 333 333 333
357 354 352 351 350 351 351 351 351 351 349 348 348 347 348 348 347 348 348 346 344 342 338 343 342 345 344 344 346 346 347 344 345 346 349 348 346 345 346 345 342 341 333 334 333 332 331 331 331 331 331 332 330 329 329 328 328 326 325 325 325 325 324 324 324 325 326 326 327 328 328 329 329 328
359 356 353 352 351 350 349 349 349 350 350 349 347 347 348 347 347 347 347 348 346 343 340 342 346 347 346 346 347 346 343 345 345 346 346 345 346 346 343 343 343 341 331 334 332 332 331 331 331 330 330 330 329 328 327 326 325 324 323 323 323 323 323 323 322 323 323 323 324 323 324 325 327 327
360 358 356 354 353 349 347 347 349 351 350 349 348 347 347 347 348 348 347 348 348 346 343 342 340 346 343 344 345 347 344 342 342 342 344 346 345 346 342 341 341 347 341 341 340 333 332 330 329 330 330 329 328 327 326 325 323 322 320 317 317 319 319 319 320 320 320 320 321 322 322 323 324 325
361 359 358 357 354 351 349 348 349 351 351 349 349 350 349 348 347 347 347 346 345 346 345 342 341 341 344 345 343 346 348 347 345 341 340 341 344 347 344 343 343 342 343 341 337 337 337 334 335 326 325 327 327 327 326 324 322 322 319 317 316 317 316 317 318 319 318 319 319 318 317 317 320 321
360 359 358 357 356 354 352 351 351 352 350 350 350 350 351 350 348 346 346 346 344 344 345 342 340 340 341 344 345 346 346 344 344 344 341 339 340 343 347 346 344 344 344 343 340 338 334 331 331 326 325 326 327 326 326 326 327 325 322 320 321 320 318 318 318 318 317 317 316 316 316 315 317 318
361 360 359 358 356 359 352 346 348 347 347 351 350 352 352 351 350 348 346 346 345 344 344 343 343 341 340 341 343 341 340 339 340 345 344 341 342 341 340 346 348 346 344 344 343 340 338 341 340 340 339 339 333 331 329 332 332 327 323 321 322 323 321 319 318 318 318 317 316 315 315 315 315 317
361 359 358 359 351 348 344 343 342 342 342 344 350 353 353 352 351 349 347 346 345 344 343 342 342 339 338 339 342 341 342 345 345 343 343 339 340 342 339 341 350 350 346 343 341 340 341 341 342 343 340 341 343 340 339 337 334 332 326 323 323 322 322 319 318 318 317 316 316 315 313 313 315 314
361 361 359 360 357 351 346 349 339 340 339 340 342 349 352 351 354 350 347 346 346 344 343 343 342 340 340 340 343 341 341 342 342 341 342 340 339 338 337 334 343 349 346 343 342 341 344 344 340 342 340 340 340 338 337 327 325 324 324 324 322 322 321 321 321 320 318 316 315 314 313 313 314 314
362 360 360 359 360 360 360 357 354 345 338 337 339 340 347 350 348 348 352 350 347 345 343 342 342 340 341 342 344 339 339 342 341 341 340 342 339 339 338 338 337 350 352 346 342 340 345 344 340 340 340 340 340 335 328 324 324 323 322 322 322 321 321 320 321 321 320 319 318 317 317 316 316 316
363 363 360 360 360 360 345 353 357 357 353 336 334 337 339 343 344 339 339 344 355 350 346 343 344 343 343 343 345 343 344 347 342 342 338 341 340 343 341 340 340 345 350 345 341 336 339 339 337 335 338 336 336 332 324 323 323 321 320 321 321 321 320 319 319 319 318 317 316 315 315 314 314 314
362 364 363 360 360 361 362 359 357 358 356 354 349 349 351 352 349 341 337 336 337 345 350 349 345 349 350 347 348 350 350 345 342 340 339 342 341 342 342 345 345 345 346 343 339 336 336 336 335 331 334 333 334 336 330 321 322 321 320 319 319 318 317 317 317 316 316 316 315 314 312 311 311 311
363 364 364 364 361 362 362 360 356 358 358 356 352 351 350 350 350 351 350 349 349 350 348 348 350 351 351 352 350 350 351 347 347 346 346 344 343 343 346 346 346 344 345 344 339 330 333 335 330 331 332 330 332 334 323 321 320 320 317 318 317 316 315 315 316 315 315 314 314 313 312 311 310 309
366 365 365 365 363 363 363 349 336 347 360 357 354 351 350 350 350 349 344 339 342 349 348 348 347 347 350 342 351 351 345 348 350 348 346 346 345 342 340 338 336 337 343 344 338 332 331 333 328 328 330 330 329 331 332 321 320 318 318 317 316 315 314 313 314 314 314 314 313 313 311 309 308 307
367 366 366 366 364 362 363 346 330 335 344 358 356 353 351 349 349 348 350 336 332 333 331 331 332 327 324 326 326 328 334 349 346 346 342 338 338 337 333 333 334 334 335 339 339 333 330 332 329 327 327 329 327 327 326 329 319 317 315 315 314 313 313 312 312 312 312 313 313 313 313 310 309 309
367 366 351 361 365 364 366 333 327 329 343 357 357 356 353 350 348 348 350 350 345 329 329 326 325 326 328 328 328 329 328 329 339 344 338 338 336 334 335 331 331 333 333 333 337 332 327 329 328 324 325 327 327 324 326 325 327 317 313 311 313 312 312 312 311 311 311 312 312 312 311 309 308 318
365 366 354 345 353 358 355 325 325 325 340 357 358 357 354 351 349 350 351 350 346 343 342 342 342 342 338 346 346 344 333 339 343 343 342 340 336 334 333 332 331 328 329 335 338 330 328 326 325 325 320 318 323 325 323 323 324 325 325 325 322 314 313 312 310 309 309 310 311 312 310 309 309 319
363 365 365 351 331 333 333 322 320 321 327 353 358 358 354 351 349 351 351 351 346 345 343 343 343 344 345 345 346 345 341 340 341 342 342 341 339 336 333 332 331 327 327 330 333 330 327 326 322 325 321 317 315 319 322 322 324 324 322 321 319 318 317 315 313 310 308 309 309 310 310 309 310 320
360 362 360 362 335 325 325 317 316 318 321 333 358 359 356 354 353 348 351 348 344 346 346 345 343 342 342 342 342 341 341 339 339 338 340 341 341 337 333 330 328 326 325 327 330 331 326 325 322 322 321 320 318 317 320 321 322 320 322 323 320 320 322 322 319 322 315 309 307 307 307 308 308 315
360 362 362 364 341 322 322 316 314 315 319 324 352 361 335 332 332 351 353 349 347 346 344 343 340 339 338 338 338 338 338 337 337 337 338 339 339 337 333 333 331 326 322 332 325 330 325 323 322 320 320 317 316 317 315 317 318 319 322 321 321 321 321 320 317 319 322 323 326 319 316 310 309 309
362 363 363 360 334 320 319 314 313 314 316 320 341 330 324 324 328 343 351 346 345 343 342 342 340 338 338 337 336 337 336 338 338 337 337 338 338 338 333 333 332 331 328 329 329 328 327 323 324 320 318 318 316 316 315 313 315 320 316 317 320 320 320 317 316 317 319 320 322 314 311 310 311 311
362 361 364 356 323 315 314 312 312 314 315 330 324 321 321 324 330 349 350 343 344 341 339 340 339 338 338 338 337 336 338 337 341 339 339 338 335 337 333 331 330 329 331 329 329 328 328 325 324 325 323 318 315 314 312 314 313 314 314 316 317 317 317 318 317 318 320 323 323 323 322 321 323 329
360 343 331 329 316 314 313 313 313 315 314 318 321 318 318 327 345 347 346 343 343 340 338 338 339 337 338 338 339 340 341 342 342 341 336 336 336 333 334 330 330 329 326 326 326 327 327 325 324 325 324 320 316 315 313 311 312 312 314 314 311 314 317 318 317 318 321 321 320 321 320 319 319 321
334 328 324 322 314 314 317 324 328 330 328 318 321 319 321 343 345 345 344 342 340 338 338 337 337 336 338 339 340 343 342 341 336 335 336 332 327 329 330 328 328 329 327 326 324 324 325 325 325 325 321 320 318 315 315 312 314 314 314 312 313 315 316 317 318 319 320 321 320 321 320 320 319 319
345 343 340 336 318 321 318 323 323 327 325 322 325 328 333 343 344 344 343 341 340 339 338 336 336 338 338 340 342 339 336 339 336 336 332 328 327 328 328 328 327 325 326 327 325 324 324 325 325 324 321 319 318 317 316 314 312 311 313 314 313 310 314 317 318 318 320 320 321 320 320 319 319 322
349 353 330 324 325 327 325 329 332 335 333 329 328 331 337 342 343 340 338 338 341 341 340 339 339 337 338 337 335 334 333 331 331 333 329 327 326 326 327 325 324 323 325 325 324 327 326 325 324 324 323 321 318 318 317 315 313 313 312 313 314 314 316 315 316 319 321 322 318 317 319 318 317 318
349 351 343 333 329 329 329 331 334 334 332 329 332 333 338 342 342 340 339 337 337 337 335 334 334 334 335 334 332 331 330 331 329 329 329 330 329 326 326 323 322 320 319 320 323 325 325 324 325 324 324 323 322 319 315 312 312 314 313 314 314 314 315 316 317 318 323 321 317 316 318 318 318 318
346 348 340 334 330 328 331 331 332 333 330 328 331 333 332 339 340 338 337 337 336 335 334 333 332 334 333 331 331 330 329 328 328 327 325 327 329 328 325 323 322 323 323 320 321 321 324 324 325 323 324 324 322 322 320 315 314 316 316 316 315 314 315 317 317 319 320 317 316 314 314 315 317 317
339 345 341 333 333 332 335 334 335 334 330 329 330 333 335 339 337 334 336 337 335 333 333 333 333 331 330 328 328 326 325 325 325 326 326 328 328 327 324 321 321 321 320 319 319 323 321 322 321 319 319 319 318 321 324 324 318 318 318 317 317 315 317 317 316 317 318 319 317 315 314 315 314 315
338 340 341 336 336 335 335 336 336 335 331 331 332 333 334 335 336 334 335 334 336 333 333 332 330 329 328 327 326 325 323 322 324 325 324 325 325 324 323 322 322 321 320 320 319 320 320 318 318 315 312 311 311 309 315 322 323 320 315 314 315 318 316 316 317 317 315 315 319 317 313 312 313 315
337 341 341 340 338 337 335 337 337 336 333 333 333 333 334 334 334 334 334 332 334 332 333 331 329 328 328 326 324 322 323 322 324 325 324 323 323 323 322 322 321 322 320 320 321 320 320 317 316 314 310 307 306 305 309 325 318 321 322 315 317 315 316 316 317 316 316 317 318 315 313 312 311 313
333 339 342 339 338 338 337 338 338 335 333 332 332 333 334 335 334 334 334 333 331 332 330 330 327 326 326 325 324 323 323 324 325 325 323 324 322 321 320 318 318 318 319 320 320 319 318 317 314 312 311 308 306 306 308 316 320 317 317 325 314 314 314 316 313 314 316 316 314 314 314 311 311 313
328 333 339 341 340 339 337 337 338 336 333 332 332 332 333 333 332 331 330 330 330 330 331 329 327 326 324 325 324 323 324 324 323 323 324 323 322 320 319 318 318 319 319 318 318 318 317 315 313 312 310 309 308 309 311 310 310 314 316 311 317 315 314 314 314 314 313 312 313 315 315 318 314 313
324 328 332 336 339 339 338 339 338 337 334 332 332 333 331 329 329 329 329 328 329 330 330 328 326 322 325 324 323 324 325 324 323 322 322 321 321 319 318 319 318 318 318 317 316 316 315 314 314 313 313 314 315 315 312 311 310 312 313 319 308 315 317 316 314 312 312 313 314 312 311 312 309 312
329 328 328 330 332 335 336 336 335 333 332 332 332 327 330 329 329 328 329 329 328 329 328 326 325 324 323 324 324 323 322 322 322 321 321 320 321 320 319 317 319 318 317 316 315 314 314 315 324 316 322 319 316 314 310 307 308 312 315 318 308 306 309 313 320 316 313 316 314 312 309 308 307 308
329 329 329 330 331 333 334 333 332 330 329 330 329 328 328 328 328 323 325 325 328 327 326 325 325 324 324 324 323 322 322 321 321 321 320 319 319 320 319 317 317 318 316 314 314 314 316 322 319 320 318 315 311 308 307 310 311 311 315 314 318 311 306 307 309 314 324 317 313 309 307 307 307 305
334 333 330 332 334 333 332 329 328 328 327 328 327 327 327 326 325 325 326 326 326 325 325 325 325 324 325 324 323 323 323 322 322 320 319 319 318 317 317 317 317 316 316 315 315 315 315 318 318 314 313 312 311 312 310 311 310 311 312 311 313 317 322 312 307 308 311 312 312 313 314 309 305 302
333 332 330 329 328 328 327 328 329 328 327 327 326 326 325 325 325 325 326 325 325 326 326 326 326 325 326 325 325 324 324 323 322 324 321 319 319 318 317 317 315 315 314 313 313 313 314 314 314 313 311 311 312 311 310 310 310 310 310 311 314 315 314 317 320 315 311 311 311 310 311 311 311 310
332 332 333 331 327 326 327 327 327 327 326 325 325 325 324 325 325 326 326 326 326 327 327 327 328 327 327 326 325 324 324 320 321 321 321 319 318 318 317 316 314 313 312 313 312 313 313 312 312 313 312 311 311 311 310 310 310 310 310 311 311 313 314 313 312 312 312 312 310 310 309 310 310 309
Wind_Speed
10 10 11 8 7 5 6 5 5 5 4 3 3 3 5 5 4 5 6 4 5 7 10 6 7 6 7 6 6 6 7 5 11 9 8 8 6 13 15 14 13 12 12 12 10 8 8 7 7 8 8 8 8 8 8 8 8 9 8 9 8 8 8 8 9 9 9 10 10 10 10 11 11 12
8 9 9 9 8 7 6 7 6 6 5 5 5 5 5 5 5 4 4 2 4 4 4 7 5 6 7 6 6 6 6 7 11 7 8 8 8 15 15 14 13 12 12 11 10 9 8 6 7 7 7 7 7 7 8 9 9 9 9 9 8 8 8 8 8 8 9 9 10 10 11 11 11 11
9 9 10 9 8 8 7 7 7 6 7 6 6 6 6 6 6 5 4 5 3 4 5 5 4 9 5 7 7 6 6 7 9 8 7 7 5 16 12 14 12 11 12 11 10 9 7 7 8 8 8 7 7 9 9 9 9 9 9 8 8 8 8 7 7 8 8 9 10 10 11 11 11 11
9 10 10 9 9 8 8 8 8 7 7 7 7 7 7 6 7 6 6 6 5 5 6 3 3 8 7 6 5 5 5 6 9 6 7 4 9 8 6 12 12 12 11 12 10 9 8 8 10 9 9 8 7 7 6 7 8 8 7 7 7 8 8 7 7 8 8 8 9 9 10 11 11 11
10 10 10 10 10 9 9 8 8 8 8 8 8 7 7 7 7 7 7 7 7 5 5 5 5 5 6 7 6 6 6 6 5 6 7 6 7 7 7 8 14 14 14 13 11 10 9 10 11 10 9 9 8 7 9 9 8 7 6 6 7 7 7 6 6 8 8 8 8 9 10 10 10 10
10 11 11 11 11 10 10 9 9 9 9 9 9 9 9 8 8 8 8 8 7 7 6 6 6 5 5 5 7 7 8 7 6 7 7 7 8 7 7 8 9 17 15 15 14 12 12 12 11 11 10 10 10 9 9 10 10 8 7 7 8 8 8 8 7 8 8 9 9 10 10 11 11 11
12 12 12 13 12 10 11 11 10 10 10 9 10 10 9 9 9 9 9 8 8 8 7 6 7 7 6 6 6 7 7 6 6 7 7 8 7 7 8 8 6 18 17 16 13 13 13 12 12 11 11 11 10 10 11 11 10 8 8 9 8 9 9 8 7 8 8 9 10 11 11 11 12 13
13 13 13 13 13 12 12 11 10 9 9 9 9 10 9 9 9 8 9 10 7 7 8 7 7 7 8 7 7 6 7 8 7 7 7 8 8 8 8 8 8 12 18 14 13 13 13 12 11 11 12 11 11 11 12 11 9 9 10 10 10 9 8 7 7 7 9 9 9 10 10 11 11 11
14 14 14 14 14 13 13 12 12 11 12 10 9 9 9 9 9 8 8 9 9 8 8 7 6 6 6 6 7 7 7 8 8 7 8 8 8 9 10 7 7 11 18 13 14 12 12 11 11 12 12 11 11 12 12 11 10 11 11 10 9 8 7 7 8 8 8 9 8 9 9 10 10 10
14 14 15 14 14 14 14 13 12 12 13 11 11 11 9 9 9 9 9 8 9 10 9 8 7 7 8 7 6 8 8 8 8 8 8 8 8 7 8 8 7 7 6 6 7 8 8 10 13 14 12 12 13 13 12 11 11 11 12 10 8 7 7 7 7 8 8 8 8 8 9 9 9 10
15 15 15 14 15 15 15 15 14 13 13 12 12 11 10 10 10 9 9 9 10 10 9 9 8 8 8 8 8 8 8 8 8 8 8 9 8 7 8 8 8 7 9 10 11 10 9 9 11 14 15 13 14 14 12 11 12 13 12 9 8 8 9 9 8 8 7 7 7 8 8 9 9 10
16 16 16 16 16 16 15 15 14 13 13 11 12 11 10 10 10 10 10 10 10 10 10 9 9 9 8 7 8 7 8 9 10 9 8 9 8 8 7 8 8 7 7 8 7 8 6 4 9 10 13 15 15 15 13 14 14 14 13 9 7 8 9 9 8 8 8 8 8 8 9 9 9 9
16 16 16 16 16 16 15 17 14 14 12 11 11 11 11 11 11 10 9 9 9 9 9 9 8 8 9 9 8 9 9 10 10 8 8 7 7 7 8 9 9 8 7 7 7 7 7 8 8 8 8 8 13 14 16 12 14 14 13 8 8 8 8 8 8 8 9 9 9 9 9 11 12 12
16 17 16 15 18 16 17 17 17 15 15 15 13 11 12 12 11 11 11 10 10 9 10 10 9 10 10 10 10 9 10 9 8 9 8 8 7 6 7 5 6 5 8 7 7 6 5 6 5 4 7 8 10 9 8 9 5 9 9 8 6 7 7 7 8 9 9 10 10 10 10 10 11 12
15 15 16 14 14 14 15 17 19 17 16 16 16 14 14 13 12 12 12 11 10 10 10 9 9 9 10 10 10 10 10 9 9 9 8 8 7 7 7 8 5 7 7 6 6 4 4 6 7 5 6 7 6 7 3 14 12 11 9 8 8 6 5 7 9 10 10 10 11 11 11 11 11 11
14 15 15 15 13 14 14 14 15 17 18 16 16 16 13 15 16 13 11 11 11 11 10 10 10 10 10 9 9 10 10 8 9 8 9 8 8 8 8 7 7 3 1 3 2 4 2 7 8 6 6 6 6 3 12 14 13 12 11 8 5 4 6 8 9 10 10 11 11 12 12 11 12 12
15 14 14 14 14 12 18 16 16 14 15 16 18 17 16 13 14 15 13 10 8 9 11 11 10 10 9 9 8 9 7 5 8 7 8 8 8 7 8 7 5 4 4 3 3 5 4 7 8 7 5 6 8 6 12 13 12 12 8 7 7 6 7 9 10 11 12 12 12 11 12 12 12 12
16 16 14 14 14 14 12 15 17 15 15 14 12 12 12 12 12 11 13 15 14 10 8 10 11 8 8 8 7 7 6 7 8 7 8 8 8 8 8 6 3 6 6 6 4 4 7 7 6 8 8 6 2 4 11 14 12 10 9 10 8 8 8 9 10 11 12 12 12 12 12 13 12 12
17 16 15 16 15 15 14 14 17 16 16 15 14 14 15 15 15 13 14 14 13 12 12 10 9 7 8 9 8 7 6 8 7 8 8 8 8 7 5 5 3 4 7 8 6 7 7 6 9 6 5 4 4 2 12 13 14 12 12 10 9 8 10 10 11 12 12 13 13 13 12 13 13 13
15 16 16 16 16 15 16 17 22 18 15 15 16 16 16 15 14 15 15 16 15 15 13 12 12 10 8 4 7 8 10 7 7 7 7 5 3 5 5 7 6 8 6 7 7 7 6 8 6 2 2 4 5 4 3 13 14 14 11 10 9 11 10 11 11 11 12 12 13 13 13 13 14 14
16 16 17 16 15 16 16 17 22 22 18 15 16 15 15 14 14 14 13 15 17 15 13 8 7 1 7 7 7 8 6 5 6 7 6 7 8 7 8 7 7 8 7 10 10 7 8 2 2 2 3 4 6 6 7 4 12 12 11 12 13 12 12 12 12 12 13 13 13 13 13 13 13 14
14 17 19 18 17 16 15 18 24 23 20 16 16 16 15 15 15 14 13 10 12 16 11 9 8 9 8 8 8 9 10 9 6 8 8 7 7 7 7 7 7 7 7 7 11 8 6 2 1 1 4 5 6 8 7 2 9 13 13 16 15 14 13 13 12 13 14 16 16 15 14 14 12 8
15 16 14 20 19 17 16 20 24 25 21 17 17 17 16 16 16 14 14 12 13 10 10 8 7 6 7 7 6 6 6 7 7 8 8 9 8 7 7 8 6 6 8 5 11 6 6 3 3 1 3 6 5 4 4 5 4 6 7 7 10 14 13 13 13 15 16 17 17 17 16 15 9 6
15 16 14 17 22 21 19 19 24 24 26 19 16 16 16 16 17 15 14 12 12 13 13 12 11 10 9 7 8 7 7 7 9 9 10 10 8 8 8 7 7 7 4 5 6 5 2 1 1 3 4 5 6 3 4 6 4 3 4 5 6 7 13 14 12 17 18 17 17 18 17 16 10 6
15 15 19 15 19 23 19 19 23 25 26 22 16 16 15 15 13 14 12 13 14 13 12 10 10 10 10 11 12 11 8 8 8 9 9 9 9 8 8 8 9 9 6 5 3 6 3 1 2 2 5 6 7 7 5 3 4 6 5 4 4 4 4 5 5 7 12 19 19 19 17 16 15 11
15 16 14 13 15 23 21 19 22 25 24 25 15 15 15 14 15 14 11 12 11 11 11 10 9 9 11 12 13 11 10 10 11 10 10 11 11 10 11 10 5 1 6 2 5 5 4 2 4 5 5 5 7 7 6 5 6 6 2 3 4 5 5 6 6 6 6 5 5 8 11 15 17 18
15 13 14 14 16 23 23 20 21 22 24 20 17 18 14 16 18 15 11 13 11 11 11 10 9 9 9 10 11 11 11 10 9 11 11 11 11 9 4 7 3 4 8 5 2 5 4 3 2 4 5 5 6 6 7 7 4 2 5 4 4 4 4 6 6 7 7 6 7 7 11 15 18 18
15 16 15 12 16 22 23 23 21 21 21 18 23 18 17 18 18 13 10 12 12 11 11 10 10 12 11 9 9 9 8 9 9 10 10 8 9 5 4 5 2 3 4 5 5 5 5 4 4 5 5 6 7 7 6 6 6 5 4 4 5 5 6 5 6 6 7 7 7 6 7 7 5 6
16 17 16 17 15 20 22 24 23 20 22 24 21 16 15 15 10 12 11 13 12 12 12 11 10 11 9 8 7 7 8 8 10 8 8 8 5 6 5 5 3 3 2 3 3 4 5 5 4 5 5 5 6 7 6 7 6 6 4 5 6 5 5 6 8 7 6 6 7 7 7 7 7 6
18 15 13 8 11 18 19 14 9 7 12 18 19 17 16 12 13 13 12 13 13 12 11 10 11 10 10 9 8 7 8 5 9 10 6 6 7 7 6 5 4 4 4 6 6 5 5 5 5 5 5 6 7 7 7 7 6 6 5 5 6 6 7 7 6 6 7 7 6 5 7 7 9 9
10 12 9 5 9 8 17 21 22 22 20 16 13 10 11 14 14 14 14 15 14 13 11 10 10 8 8 7 6 7 9 5 6 5 5 5 6 6 6 6 6 7 8 8 9 7 6 5 6 6 6 6 7 7 7 6 7 7 6 6 5 6 5 6 7 7 5 6 6 7 7 8 9 9
14 16 8 7 6 7 9 14 14 15 15 18 17 13 15 17 15 15 16 15 12 12 11 10 9 7 8 7 6 6 6 7 6 4 5 4 7 6 7 7 7 6 7 8 7 7 6 6 5 5 6 6 7 7 6 7 8 7 6 6 6 7 7 7 7 6 5 5 7 8 7 9 9 9
15 10 5 5 7 9 12 11 12 10 8 7 14 16 15 15 14 15 14 16 15 14 13 13 13 12 10 9 8 8 8 8 7 6 5 4 5 7 8 8 7 8 8 7 7 6 7 7 7 7 7 7 8 8 7 8 8 7 6 6 5 6 6 6 6 6 5 5 7 9 8 8 9 9
13 11 12 10 11 12 14 15 16 16 14 12 12 15 19 15 11 15 15 14 14 15 14 14 14 13 12 11 11 10 9 8 7 8 8 7 7 8 7 7 8 7 5 5 5 6 6 7 7 8 7 8 8 9 10 10 8 6 6 5 5 6 6 6 6 6 6 7 7 9 9 8 8 8
13 14 12 12 16 17 16 16 18 18 17 20 19 18 18 14 15 15 13 12 14 13 13 14 13 13 13 12 11 10 9 10 9 9 8 8 8 6 6 6 7 7 7 7 7 5 5 6 6 6 7 8 10 11 15 14 9 7 5 5 5 6 6 6 7 6 7 7 8 9 9 9 9 8
14 15 15 15 17 17 17 16 14 14 17 17 18 17 17 15 16 17 16 14 13 14 14 13 13 13 13 12 11 9 8 8 8 9 10 8 8 7 7 7 7 7 7 6 6 6 6 7 7 8 8 8 9 10 9 21 16 7 6 4 4 4 5 6 6 7 8 8 7 8 9 10 9 9
15 15 16 17 18 18 20 17 12 15 17 18 17 18 18 19 16 16 15 16 16 15 15 14 13 14 13 12 11 10 10 10 9 9 10 9 9 9 9 8 7 6 6 6 5 6 6 7 7 7 7 8 9 9 5 7 16 16 5 5 4 4 5 5 6 8 8 8 8 8 9 9 10 10
14 14 16 17 18 19 19 18 18 18 15 14 16 16 15 16 14 15 15 16 16 14 13 13 13 14 13 13 13 10 9 9 9 8 9 9 9 9 9 8 8 8 7 6 6 6 6 7 7 8 8 8 8 8 6 5 7 10 14 5 5 6 5 6 8 8 7 7 8 8 8 10 10 10
12 14 15 16 16 16 17 18 20 21 20 18 18 17 15 13 13 13 14 14 14 14 13 12 12 13 14 13 12 11 10 10 9 10 11 10 9 7 6 7 8 7 7 7 7 8 7 8 8 8 8 8 8 7 5 5 6 3 6 15 8 7 7 7 8 8 8 9 8 7 8 8 10 12
10 11 15 15 14 13 15 16 17 17 17 17 17 16 15 15 15 15 15 14 13 13 11 10 11 12 12 11 11 10 9 12 12 9 11 11 10 8 8 7 7 6 6 7 8 8 8 8 9 9 8 8 5 4 5 6 7 7 6 10 19 12 8 7 8 8 9 8 8 10 10 10 10 8
8 11 12 13 14 14 12 12 11 8 9 13 17 16 16 16 16 14 14 14 13 13 11 10 11 11 11 10 11 11 11 10 11 11 10 8 6 7 8 7 6 7 7 8 8 8 8 7 4 9 3 1 2 4 6 7 8 7 7 6 14 19 18 14 10 7 8 7 8 9 10 11 10 10
8 10 12 12 12 13 10 9 8 9 12 12 12 16 17 15 15 18 16 17 13 12 11 10 10 10 10 10 10 9 9 10 10 9 8 7 7 6 6 7 8 7 8 8 8 7 6 6 6 4 3 3 5 7 8 8 7 7 5 5 4 12 19 17 16 14 11 7 7 9 9 9 9 10
6 6 7 7 6 3 2 5 5 7 10 10 11 12 14 16 16 16 14 14 12 11 9 9 9 9 9 9 9 8 7 7 8 8 8 7 8 7 7 7 8 8 7 7 7 7 6 6 4 4 5 6 8 8 9 8 7 7 7 7 6 4 1 12 18 19 17 16 14 11 8 8 9 10
10 11 13 13 12 12 12 10 8 6 2 11 13 14 14 16 17 16 15 14 13 10 8 7 8 8 7 7 7 8 7 7 7 5 5 5 6 7 9 8 8 8 7 7 8 7 5 5 5 7 7 9 8 9 9 9 8 7 6 6 6 6 8 7 5 11 13 15 17 16 15 14 12 12
9 9 9 8 11 13 13 14 14 14 14 13 13 13 12 11 11 13 15 13 11 9 8 9 8 7 7 7 6 6 7 5 5 5 5 5 6 6 7 8 9 9 9 8 7 7 6 7 7 6 7 7 7 7 8 7 7 7 7 8 8 7 7 5 6 7 7 6 7 14 15 13 12 14
Wind_Direction
209 210 209 212 231 221 204 215 205 188 217 205 199 196 207 216 270 204 207 219 246 188 199 244 171 206 168 184 215 223 224 192 164 190 214 224 212 183 190 193 201 208 219 227 228 230 231 236 247 257 259 265 266 267 270 272 275 276 274 273 271 270 272 272 270 270 271 273 272 274 274 274 275 276
219 210 209 206 214 223 213 207 216 183 192 201 197 202 202 210 223 240 264 218 206 250 182 231 167 196 171 189 198 226 226 167 174 230 228 224 234 165 188 192 198 207 215 221 224 221 224 233 244 246 253 257 258 260 260 263 263 264 266 271 273 274 275 275 273 273 275 274 276 277 278 278 278 278
215 217 212 205 212 211 216 209 209 198 186 202 205 203 205 198 220 231 228 249 224 246 245 218 178 170 185 198 203 207 226 176 194 232 239 240 181 163 184 190 195 205 213 218 217 216 220 235 238 242 241 237 235 242 245 250 253 257 263 268 273 279 284 286 288 286 283 283 281 281 282 283 283 281
209 215 217 209 208 209 210 211 210 205 198 197 205 208 203 206 207 214 225 233 234 194 246 216 216 164 175 207 218 215 215 161 179 225 241 208 131 173 185 188 193 202 213 217 215 214 222 229 235 241 243 248 255 259 266 262 258 264 271 279 288 293 295 302 303 294 288 287 287 283 280 281 281 283
210 207 214 217 208 210 209 208 210 208 199 202 207 207 207 209 204 205 213 222 228 236 219 243 238 211 216 192 195 221 221 183 184 216 236 188 181 196 217 192 194 201 209 213 212 213 221 229 235 239 244 250 255 261 266 270 273 278 286 291 294 289 287 291 284 287 290 289 286 289 290 289 290 288
209 203 207 213 213 209 213 209 210 210 204 200 207 206 208 210 205 204 209 216 227 227 215 220 232 259 204 239 180 215 218 221 184 206 220 229 215 220 218 231 188 199 205 208 208 208 216 226 232 238 243 250 253 259 266 267 272 275 275 277 277 278 278 280 278 282 288 294 294 297 296 298 300 299
206 205 203 207 209 208 211 213 215 212 211 206 207 209 206 210 211 203 205 213 220 228 229 213 214 218 231 221 218 206 221 229 210 200 214 224 224 221 231 235 235 187 203 203 204 208 212 220 229 234 241 246 248 254 255 258 259 259 260 260 262 263 269 277 284 293 296 297 296 296 299 301 301 304
205 207 203 205 205 207 209 210 213 216 212 212 208 209 208 208 214 212 201 210 226 223 227 225 227 213 211 207 229 222 207 223 217 214 210 224 232 235 234 232 257 181 191 198 204 207 213 218 223 229 234 234 239 242 247 247 244 246 248 248 251 261 276 290 296 293 292 292 291 290 292 295 297 298
205 206 207 204 204 203 207 209 212 212 213 211 211 210 208 208 210 215 212 205 212 223 228 229 219 226 225 226 205 217 220 210 226 217 223 220 221 224 237 238 223 158 185 192 200 209 214 217 222 228 227 227 230 236 239 238 236 240 247 250 257 275 291 298 296 288 281 279 280 286 285 287 289 291
206 208 208 206 203 203 205 208 208 209 211 210 212 212 209 209 208 211 215 216 207 214 225 227 230 216 223 216 220 208 215 223 214 224 223 226 230 225 231 240 235 160 176 192 199 212 217 218 226 223 222 219 222 230 232 234 238 245 251 259 272 277 275 273 270 268 268 272 277 283 291 294 295 294
207 209 208 208 206 206 205 206 206 205 207 209 211 211 211 208 211 210 214 213 215 214 217 222 228 233 216 218 218 209 215 224 231 223 218 225 219 224 228 230 246 218 192 195 187 198 206 215 214 214 216 211 220 224 226 229 236 243 248 257 266 273 277 278 275 269 269 274 279 282 284 288 289 292
209 210 210 210 208 208 206 205 206 203 204 204 209 207 208 209 209 214 211 211 214 214 218 221 221 219 231 213 223 218 210 224 227 230 231 227 223 222 221 229 233 239 246 224 213 199 183 199 223 211 201 210 217 222 225 228 234 235 243 236 240 253 259 263 267 272 276 282 285 287 292 293 292 288
212 213 213 214 213 206 204 202 203 203 199 201 204 205 203 207 209 212 215 211 212 214 219 220 220 225 219 225 218 216 215 215 222 217 222 234 236 228 219 219 227 232 226 235 246 256 223 222 225 205 213 211 215 226 227 231 224 232 235 223 232 242 257 267 278 285 290 292 292 294 298 301 301 300
213 215 217 215 213 204 197 196 199 203 201 202 207 202 203 203 206 209 212 213 210 213 217 219 218 220 225 224 220 223 222 219 223 229 220 227 227 228 246 229 190 217 236 233 238 245 245 249 247 255 256 220 216 232 224 226 229 200 192 196 209 239 255 271 277 280 285 286 290 291 289 287 287 287
214 216 218 222 203 201 193 194 194 200 204 201 208 206 202 203 204 206 209 212 211 210 216 217 220 229 233 230 233 231 234 232 229 229 233 238 232 232 228 233 194 205 196 239 233 233 266 261 260 253 262 272 278 274 112 115 123 144 167 177 211 226 252 268 269 273 275 278 279 281 280 278 277 277
215 215 216 217 217 201 198 193 192 199 201 201 205 209 208 204 206 213 211 208 210 211 212 214 224 235 229 231 231 239 234 224 231 232 240 226 234 230 228 232 234 151 182 176 192 245 302 304 263 254 252 260 273 246 144 152 148 156 169 183 183 232 253 260 269 271 272 274 275 275 277 277 276 275
212 213 215 216 214 213 191 193 196 195 200 201 203 208 211 212 209 209 220 231 225 210 214 225 228 219 231 234 228 232 240 232 238 225 228 234 226 230 233 228 227 145 195 172 217 249 241 235 242 253 247 251 255 150 146 146 153 149 161 162 196 223 244 258 264 267 267 268 269 271 273 274 274 273
213 210 211 213 211 213 187 192 199 198 199 196 201 207 211 214 211 213 217 223 236 245 245 233 234 227 224 235 237 231 222 225 228 230 229 226 227 227 233 234 230 152 189 191 202 250 246 240 249 233 230 237 229 258 149 157 150 163 165 185 194 204 233 249 257 262 267 268 269 268 270 274 276 276
212 211 210 210 211 208 200 188 195 197 196 195 200 204 210 215 216 212 213 213 218 225 232 237 248 255 241 231 226 231 226 232 224 226 235 229 234 235 220 219 222 225 202 198 200 243 240 233 251 281 343 326 292 310 144 166 166 169 184 184 190 208 225 234 243 252 259 262 264 265 267 269 272 274
211 212 210 209 209 207 206 188 186 191 190 194 196 201 208 212 215 218 217 214 213 220 226 233 234 236 244 274 242 224 222 207 219 218 220 225 210 211 219 232 233 234 203 192 203 228 245 235 229 258 299 294 273 271 266 169 177 181 183 187 201 215 224 234 242 250 257 261 262 262 264 264 268 271
214 212 210 210 209 206 209 183 182 185 184 195 193 197 200 205 210 217 214 200 205 210 219 226 235 133 113 121 123 117 125 158 205 211 212 216 219 219 234 237 244 252 233 201 209 217 241 326 22 266 260 282 286 280 281 239 182 175 187 198 211 218 223 232 239 247 256 261 262 261 261 262 263 266
220 215 207 206 211 208 206 171 181 182 184 195 195 193 193 195 204 210 208 194 194 195 172 138 137 139 135 127 132 138 136 127 164 204 213 217 225 223 232 240 238 231 239 210 184 222 240 231 241 293 270 269 259 257 244 259 162 190 196 210 214 216 224 230 235 245 251 256 260 261 259 260 260 264
221 222 208 204 206 209 206 175 181 182 185 197 198 196 198 200 203 202 200 194 171 160 167 158 146 140 146 156 165 160 148 156 192 216 230 233 237 234 231 232 225 251 245 145 182 191 185 183 218 238 282 261 262 277 287 274 246 207 215 214 214 220 225 228 235 242 247 250 251 253 259 259 250 258
221 222 222 204 206 207 203 178 183 182 189 197 200 198 201 203 208 199 198 171 170 170 182 185 188 193 188 189 194 162 177 191 211 214 218 230 231 223 217 224 226 239 221 164 180 177 191 133 256 242 270 286 279 271 271 263 245 283 295 275 289 202 206 224 235 239 246 246 245 250 250 253 241 246
222 222 227 227 198 203 197 180 184 186 191 197 202 204 205 204 192 190 183 164 163 173 176 181 180 193 201 210 214 208 185 198 201 210 216 223 219 208 211 230 236 236 67 90 78 135 169 162 237 280 263 256 263 262 258 283 272 271 260 258 276 290 297 259 265 263 225 232 239 240 241 246 241 227
224 221 219 230 193 193 197 184 185 189 190 197 205 210 207 186 169 187 164 160 166 170 175 187 184 178 200 205 208 197 197 209 211 208 208 210 210 206 214 224 252 306 128 83 82 120 130 166 233 253 250 254 267 266 268 261 266 256 277 300 278 273 268 280 277 275 290 300 271 218 230 234 237 229
229 224 222 220 187 189 194 186 187 190 193 193 206 208 193 174 169 171 169 162 171 174 180 183 177 181 193 201 205 203 200 201 197 203 210 198 210 231 248 45 67 65 105 140 135 106 146 190 229 240 255 255 268 279 268 262 257 316 280 271 290 290 287 290 280 284 290 291 284 247 214 221 229 232
234 242 236 227 178 186 188 186 185 189 191 197 202 201 187 173 169 173 171 163 175 172 173 179 176 187 196 189 198 196 185 191 179 202 203 209 206 193 105 98 91 129 121 136 157 167 167 191 200 220 239 251 253 258 273 275 272 273 287 290 293 302 297 284 282 283 274 264 281 292 296 300 285 254
240 241 237 233 179 184 183 186 185 188 193 198 199 197 184 177 178 178 170 170 173 176 173 178 173 182 191 191 191 184 185 196 161 187 216 204 150 117 120 133 160 133 182 205 193 196 193 186 218 228 226 238 247 253 255 273 285 281 287 310 290 291 294 293 282 271 274 288 283 283 298 305 300 290
239 253 262 272 181 183 181 173 168 167 192 200 197 189 187 190 189 182 172 172 175 177 172 173 175 180 182 189 190 170 176 186 159 184 203 131 145 150 139 144 173 188 196 214 220 210 203 196 213 236 247 239 243 261 259 264 263 273 279 275 284 285 268 266 277 287 278 271 279 297 300 300 293 293
256 247 244 164 187 188 176 175 183 190 191 190 193 187 194 198 196 188 178 176 174 171 166 170 174 174 178 175 152 146 179 147 135 145 145 157 147 164 158 165 188 197 212 213 210 195 207 207 207 218 227 241 250 249 263 265 267 270 267 266 268 275 290 290 276 270 285 296 306 300 296 290 288 283
231 233 197 160 131 160 182 202 201 200 191 190 186 182 189 196 196 188 170 162 164 163 164 157 152 148 172 166 146 135 130 128 142 135 148 169 173 179 168 192 205 216 208 207 205 188 178 209 208 219 235 247 253 256 253 253 257 260 266 265 266 267 270 277 286 291 291 309 301 293 287 289 292 294
227 223 151 143 161 173 190 201 208 205 190 202 199 193 190 193 190 182 175 175 170 166 162 159 165 170 174 154 146 146 146 144 150 146 141 188 201 193 197 185 198 209 214 207 190 191 184 189 210 231 235 231 240 252 258 260 250 247 251 257 261 266 277 276 287 294 310 297 285 288 290 289 289 286
226 213 211 183 178 182 193 198 199 197 189 187 189 196 196 194 188 187 184 175 169 166 167 162 165 166 159 149 160 160 162 146 147 159 164 187 215 217 218 196 204 216 229 235 219 205 174 184 198 207 221 236 245 243 240 246 252 248 251 261 262 273 273 288 288 296 293 289 294 290 290 292 292 291
222 225 212 198 200 202 202 204 205 197 195 193 191 193 192 189 188 185 183 176 169 163 161 162 162 161 154 156 158 158 159 158 166 175 173 179 201 221 208 203 212 218 220 211 212 218 215 186 192 220 231 238 242 237 229 231 235 239 245 245 261 266 279 285 292 289 292 284 279 284 292 291 292 298
223 223 217 209 210 207 207 205 203 196 196 191 189 188 189 189 186 181 180 171 163 162 163 158 159 153 146 150 153 151 148 154 181 174 174 182 189 202 217 218 221 217 221 217 206 210 203 210 211 227 241 242 241 253 226 211 216 235 232 259 256 278 285 291 292 290 284 280 278 284 289 295 298 300
232 225 222 221 218 212 211 210 200 199 201 195 191 189 190 186 184 178 168 158 163 167 167 157 154 151 145 147 145 150 152 167 189 180 166 187 194 199 205 214 218 230 227 214 211 220 212 216 219 234 246 253 261 259 270 144 211 225 235 246 270 273 283 284 283 278 273 277 290 289 295 302 300 300
239 238 232 228 225 221 216 213 210 207 202 193 195 193 191 189 176 166 160 161 160 156 154 155 150 147 141 144 151 155 160 170 186 180 165 189 204 206 209 215 212 210 214 223 221 225 221 217 223 227 233 252 266 262 271 169 183 224 236 246 260 274 274 279 275 278 283 290 292 298 302 298 298 301
252 249 249 245 239 231 224 218 210 204 193 189 188 186 180 176 166 160 156 152 150 150 157 154 153 147 145 146 151 156 165 167 197 187 173 193 200 204 200 213 221 212 204 208 216 217 210 220 223 229 233 241 252 280 306 306 279 319 186 199 227 252 259 263 275 280 293 296 296 305 298 291 287 280
254 261 263 265 259 247 238 228 220 210 196 187 183 175 169 163 164 158 148 146 149 146 144 146 144 140 138 142 147 159 176 185 190 201 194 197 197 190 201 205 209 217 214 215 217 209 215 218 217 226 228 235 273 336 324 300 295 278 272 212 208 216 243 263 266 286 289 290 302 301 303 307 306 316
281 271 267 258 264 266 259 248 238 238 224 194 169 159 158 153 150 151 146 140 139 137 136 138 146 143 142 148 159 172 187 184 188 199 202 196 192 194 188 186 207 208 221 220 222 228 225 220 120 89 83 13 312 303 269 260 254 257 248 244 202 211 222 226 246 272 277 290 296 297 304 309 313 311
284 267 254 249 252 256 258 263 249 207 175 167 165 146 141 143 144 132 128 128 129 127 127 135 140 143 150 163 172 176 175 182 199 204 195 183 201 186 150 184 210 211 218 224 224 228 231 121 136 167 183 229 254 248 253 253 261 268 281 293 296 202 212 225 230 235 249 277 294 301 298 305 310 309
338 352 352 306 262 293 225 135 149 168 145 135 132 134 133 133 132 129 126 123 120 120 128 133 143 154 165 165 164 175 183 193 204 214 182 183 201 198 192 197 208 214 215 220 235 236 223 147 171 190 221 228 231 237 253 261 270 275 275 274 270 326 213 209 221 229 232 239 237 240 270 285 308 304
22 31 57 55 63 61 42 34 40 7 84 130 135 140 141 135 127 123 120 120 121 126 130 134 146 164 164 155 148 161 188 205 215 214 173 172 187 206 218 196 201 215 228 231 225 226 218 207 200 207 218 223 229 235 242 251 259 265 286 294 309 290 275 284 242 218 231 237 243 244 242 245 245 262
32 43 54 75 88 94 90 82 68 52 43 44 54 58 57 66 95 115 119 120 118 119 130 142 149 156 152 149 160 169 189 196 221 178 170 188 185 202 212 195 191 206 220 217 216 218 220 223 220 213 226 238 243 247 255 261 269 287 278 275 276 274 281 289 296 297 288 298 237 217 229 235 245 246